Regional Weather Roundup
Issued by NWS

Home | Current Version | Previous Version | Graphics & Text | Print | Product List | Glossary Off
Versions: 1 2 3 4 5 6 7 8 9 10 11 12 13 14 15 16 17 18 19 20 21 22 23 24 25 26 27 28 29 30 31 32 33 34 35 36 37 38 39 40 41 42 43 44 45 46 47 48 49 50

000
ASUS43 KTOP 071108
RWRKS

WEATHER ROUNDUP FOR KANSAS
NATIONAL WEATHER SERVICE GOODLAND KS
600 AM CDT TUE JUL 07 2015

NOTE:  "FAIR" INDICATES FEW OR NO CLOUDS BELOW 12,000 FEET WITH NO
SIGNIFICANT WEATHER AND/OR OBSTRUCTIONS TO VISIBILITY.

KSZ001>006-013>018-027>032-041>047-071200-
NORTHWEST KANSAS

CITY           SKY/WX    TMP DP  RH WIND       PRES   REMARKS
GOODLAND       CLEAR     53  50  89 NE3       30.20S
HAYS           PTCLDY    61  52  72 N10       30.13R
HILL CITY      CLEAR     57  53  86 N9        30.15R FOG
RUSSELL        CLOUDY    60  58  92 N8        30.11R FOG
$$

KSZ061>065-074>080-084>089-071200-
SOUTHWEST KANSAS

CITY           SKY/WX    TMP DP  RH WIND       PRES   REMARKS
DODGE CITY     MOCLDY    62  55  77 N16       30.11R HAZE
ELKHART          N/A     63  51  65 N14         N/A
GARDEN CITY    CLOUDY    60  54  80 NE12      30.14R HAZE
GREAT BEND     CLOUDY    63  55  77 N12       30.10R
LIBERAL        MOCLDY    64  55  72 NE15      30.14R
PRATT          CLOUDY    64  59  82 NE17      30.07S HAZE
$$

KSZ066>073-081>083-090>101-071200-
SOUTHEAST KANSAS

CITY           SKY/WX    TMP DP  RH WIND       PRES   REMARKS
CHANUTE        CLOUDY    69  67  93 NE8       29.96R
COFFEYVILLE    CLOUDY    71  71 100 S3        29.94R
HUTCHINSON     CLOUDY    67  61  81 N9        30.04R HAZE
MEDICINE LODGE   N/A     64  62  93 NE16G26   30.02R
NEWTON         CLOUDY    63  55  77 NE17G25   30.05S
PARSONS        CLOUDY    70  70 100 CALM      29.95S FOG
WICHITA INTL   LGT RAIN  65  61  87 N18G26    29.99S FOG
WICHITA JABRA  LGT RAIN  63  63 100 NE18G29   30.00S FOG
WICHITA MCCONL LGT RAIN  63  61  94 N22       29.98S FOG
WINFIELD       LGT RAIN  65  63  93 NE15      29.99R FOG
$$

KSZ007>012-019>026-033>040-048>060-102>105-071200-
NORTHEAST KANSAS

CITY           SKY/WX    TMP DP  RH WIND       PRES   REMARKS
CONCORDIA      MOCLDY    60  55  83 NE9       30.11R HAZE
EMPORIA        CLOUDY    62  60  93 NE10      30.01S FOG
LAWRENCE       LGT RAIN  63  61  93 E3        30.02R FOG
MANHATTAN      CLOUDY    66  58  75 NE15G24   30.05R
MARYSVILLE     PTCLDY    59  54  82 NE9       30.09R
OLATHE IND     CLOUDY    61  59  93 NE17      30.02R FOG
OLATHE EXE     CLOUDY    61  59  93 NE10      30.01R FOG
SALINA         MOCLDY    67  58  72 N14       30.07R HAZE
TOPEKA BILLARD CLOUDY    65  63  93 N8        30.01S FOG
TOPEKA FORBES  LGT RAIN  65  62  90 NE9       30.00S FOG
$$


USA.gov is the U.S. government's official web portal to all federal, state and local government web resources and services.